Weather History for KT82 - March, 2013

Change the Weather History Date:

Wednesday, March 20, 2013

  Actual Average (KSAT) Record (KSAT)
Temperature  
Mean Temperature 58 °F 63 °F  
Max Temperature 68 °F 75 °F 93 °F (1976)
Min Temperature 49 °F 52 °F 26 °F (1965)
Degree Days  
Heating Degree Days 6 4  
Month to date heating degree days 116  
Since 1 July heating degree days 1417  
Cooling Degree Days 0 2  
Month to date cooling degree days 35  
Year to date cooling degree days 61  
Growing Degree Days 8 (Base 50)    
Moisture  
Dew Point 42 °F    
Average Humidity 60    
Maximum Humidity 95    
Minimum Humidity 24    
Precipitation  
Precipitation 0.14 in 0.07 in 1.45 in (2012)
Month to date precipitation 1.50  
Year to date precipitation 5.05  
Snow  
Snow 0.00 in - - ()
Month to date snowfall  
Since 1 July snowfall  
Snow Depth -    
Sea Level Pressure  
Sea Level Pressure 30.14 in    
Wind  
Wind Speed 10 mph (ENE)    
Max Wind Speed 16 mph    
Max Gust Speed 25 mph    
Visibility 10 miles    
Events Rain , Thunderstorm    
T = Trace of Precipitation, MM = Missing Value Source: NWS Daily Summary

Daily Weather History Graph

Daily Weather History Graph

Search for Another Location

Airport or City:

Trip Planner

Search our weather history database for the weather conditions in past years. The results will help you decide how hot, cold, wet, or windy it might be!

Date:

Astronomy

Mar. 20, 2013 Rise Set
Actual Time 7:39 AM CDT 7:47 PM CDT
Civil Twilight 7:15 AM CDT 8:11 PM CDT
Nautical Twilight 6:47 AM CDT 8:39 PM CDT
Astronomical Twilight 6:19 AM CDT 9:07 PM CDT
Moon 1:45 PM CDT (3/20) 2:57 AM CDT (3/20)
Length of Visible Light 12h 56m
Length of Day
12h 08m
First Quarter, 59% of the Moon is Illuminated
Mar 20
First Quarter
Mar 27
Full
Apr 2
Last Quarter
Apr 10
New
Apr 18
First Quarter

Hourly Weather History & Observations

Time (CDT) Temp. Dew Point Humidity Pressure Visibility Wind Dir Wind Speed Gust Speed Precip Events Conditions
12:15 AM 57.2 °F 52.2 °F 83% 30.04 in 10.0 mi NE 11.5 mph 18.4 mph N/A   Clear
12:35 AM 56.3 °F 52.5 °F 87% 30.06 in 10.0 mi NNE 16.1 mph 25.3 mph N/A   Mostly Cloudy
12:55 AM 56.3 °F 51.3 °F 83% 30.05 in 10.0 mi NNE 15.0 mph 24.2 mph N/A   Overcast
1:15 AM 56.3 °F 50.4 °F 80% 30.06 in 10.0 mi NE 15.0 mph 24.2 mph N/A   Overcast
1:35 AM 56.3 °F 50.0 °F 79% 30.08 in 10.0 mi NE 11.5 mph 21.9 mph N/A   Overcast
1:55 AM 55.6 °F 50.0 °F 81% 30.08 in 10.0 mi NE 11.5 mph 19.6 mph N/A   Mostly Cloudy
2:15 AM 55.4 °F 50.0 °F 82% 30.08 in 10.0 mi ENE 10.4 mph 19.6 mph N/A   Overcast
2:35 AM 55.4 °F 49.3 °F 80% 30.08 in 10.0 mi ENE 12.7 mph 19.6 mph N/A   Overcast
2:55 AM 55.8 °F 49.3 °F 79% 30.09 in 10.0 mi ENE 9.2 mph 17.3 mph N/A Thunderstorm Overcast
3:15 AM 55.8 °F 49.5 °F 79% 30.10 in 10.0 mi NE 6.9 mph - N/A   Overcast
3:35 AM 55.8 °F 49.8 °F 80% 30.14 in 10.0 mi North 13.8 mph - N/A   Overcast
3:55 AM 53.6 °F 50.9 °F 91% 30.12 in 3.0 mi NNE 9.2 mph - 0.14 in Rain Rain
4:15 AM 52.7 °F 50.9 °F 94% 30.11 in 10.0 mi NNE 5.8 mph - N/A   Mostly Cloudy
4:35 AM 52.3 °F 50.0 °F 92% 30.11 in 10.0 mi NNE 5.8 mph 9.2 mph N/A   Overcast
4:55 AM 51.8 °F 49.8 °F 93% 30.11 in 10.0 mi NNE 8.1 mph - N/A   Overcast
5:15 AM 51.3 °F 49.5 °F 94% 30.11 in 10.0 mi NNE 6.9 mph - N/A   Overcast
5:35 AM 51.3 °F 49.8 °F 95% 30.13 in 10.0 mi North 9.2 mph - N/A   Overcast
5:55 AM 50.9 °F 49.3 °F 94% 30.14 in 10.0 mi North 11.5 mph - N/A   Overcast
6:15 AM 50.9 °F 49.3 °F 94% 30.14 in 10.0 mi NE 8.1 mph - N/A   Overcast
6:35 AM 50.4 °F 47.8 °F 91% 30.16 in 10.0 mi NNE 13.8 mph - N/A   Overcast
6:55 AM 50.0 °F 47.5 °F 91% 30.18 in 10.0 mi NNE 10.4 mph - N/A   Overcast
7:15 AM 50.0 °F 45.7 °F 85% 30.19 in 10.0 mi NNE 10.4 mph - N/A   Overcast
7:35 AM 49.6 °F 45.5 °F 86% 30.20 in 10.0 mi NNE 10.4 mph - N/A   Overcast
7:55 AM 49.6 °F 45.5 °F 86% 30.21 in 10.0 mi NNE 6.9 mph - N/A   Overcast
8:15 AM 49.5 °F 44.6 °F 83% 30.22 in 10.0 mi NNE 8.1 mph - N/A   Mostly Cloudy
8:35 AM 50.0 °F 44.1 °F 80% 30.23 in 10.0 mi NE 9.2 mph - N/A   Scattered Clouds
8:55 AM 50.4 °F 43.9 °F 78% 30.24 in 10.0 mi NNE 11.5 mph - N/A   Clear
9:15 AM 51.3 °F 44.1 °F 76% 30.24 in 10.0 mi NE 12.7 mph 16.1 mph N/A   Clear
9:35 AM 52.2 °F 44.2 °F 74% 30.24 in 10.0 mi NNE 11.5 mph 16.1 mph N/A   Clear
9:55 AM 53.2 °F 44.4 °F 72% 30.24 in 10.0 mi ENE 9.2 mph - N/A   Clear
10:35 AM 56.3 °F 43.5 °F 62% 30.24 in 10.0 mi NE 11.5 mph 18.4 mph N/A   Clear
10:55 AM 57.2 °F 42.8 °F 59% 30.25 in 10.0 mi NE 16.1 mph 19.6 mph N/A   Clear
11:15 AM 58.1 °F 42.1 °F 55% 30.26 in 10.0 mi ENE 15.0 mph 19.6 mph N/A   Clear
11:55 AM 59.7 °F 40.1 °F 48% 30.26 in 10.0 mi NE 13.8 mph 20.7 mph N/A   Clear
12:15 PM 61.0 °F 39.7 °F 46% 30.25 in 10.0 mi NE 15.0 mph 21.9 mph N/A   Clear
12:35 PM 61.9 °F 39.6 °F 44% 30.25 in 10.0 mi ENE 12.7 mph 19.6 mph N/A   Clear
12:55 PM 62.2 °F 38.3 °F 41% 30.24 in 10.0 mi ENE 15.0 mph 21.9 mph N/A   Clear
1:15 PM 62.8 °F 38.5 °F 41% 30.23 in 10.0 mi East 13.8 mph 20.7 mph N/A   Clear
1:35 PM 63.7 °F 37.9 °F 39% 30.22 in 10.0 mi ENE 10.4 mph 19.6 mph N/A   Clear
1:55 PM 64.4 °F 38.8 °F 39% 30.21 in 10.0 mi ENE 15.0 mph 19.6 mph N/A   Clear
2:15 PM 65.1 °F 39.6 °F 39% 30.20 in 10.0 mi ENE 12.7 mph 18.4 mph N/A   Clear
2:35 PM 66.0 °F 37.9 °F 36% 30.19 in 10.0 mi ENE 13.8 mph 19.6 mph N/A   Clear
2:55 PM 65.8 °F 36.9 °F 34% 30.18 in 10.0 mi ENE 10.4 mph 17.3 mph N/A   Clear
3:15 PM 67.3 °F 36.7 °F 32% 30.17 in 10.0 mi ESE 6.9 mph 17.3 mph N/A   Clear
3:35 PM 67.8 °F 35.4 °F 30% 30.16 in 10.0 mi ENE 9.2 mph 17.3 mph N/A   Clear
3:55 PM 67.5 °F 35.2 °F 30% 30.14 in 10.0 mi East 6.9 mph 16.1 mph N/A   Clear
4:15 PM 68.5 °F 35.2 °F 29% 30.12 in 10.0 mi East 8.1 mph 16.1 mph N/A   Clear
4:55 PM 68.0 °F 31.8 °F 26% 30.11 in 10.0 mi East 5.8 mph 16.1 mph N/A   Clear
5:15 PM 68.2 °F 30.0 °F 24% 30.11 in 10.0 mi ESE 8.1 mph - N/A   Clear
5:35 PM 67.3 °F 30.9 °F 26% 30.10 in 10.0 mi East 6.9 mph - N/A   Clear
5:55 PM 67.1 °F 31.3 °F 26% 30.10 in 10.0 mi East 8.1 mph - N/A   Clear
6:15 PM 67.1 °F 29.8 °F 25% 30.09 in 10.0 mi East 6.9 mph - N/A   Clear
6:35 PM 65.5 °F 30.7 °F 27% 30.10 in 10.0 mi East 6.9 mph - N/A   Clear
6:55 PM 65.5 °F 32.4 °F 29% 30.09 in 10.0 mi ESE 6.9 mph - N/A   Clear
7:15 PM 64.0 °F 32.7 °F 31% 30.09 in 10.0 mi East 4.6 mph - N/A   Clear
7:55 PM 61.3 °F 34.9 °F 37% 30.09 in 10.0 mi East 3.5 mph - N/A   Clear
8:15 PM 60.4 °F 34.9 °F 38% 30.08 in 10.0 mi East 4.6 mph - N/A   Clear
8:35 PM 59.9 °F 35.6 °F 40% 30.08 in 10.0 mi East 3.5 mph - N/A   Clear
8:55 PM 59.2 °F 36.7 °F 43% 30.07 in 10.0 mi East 3.5 mph - N/A   Clear
9:15 PM 58.1 °F 37.6 °F 46% 30.07 in 10.0 mi Calm Calm - N/A   Clear
9:35 PM 57.4 °F 38.1 °F 49% 30.06 in 10.0 mi Calm Calm - N/A   Clear
9:55 PM 57.2 °F 38.5 °F 50% 30.06 in 10.0 mi Calm Calm - N/A   Clear
10:15 PM 56.3 °F 39.0 °F 52% 30.06 in 10.0 mi Calm Calm - N/A   Clear
10:35 PM 56.3 °F 39.2 °F 53% 30.06 in 10.0 mi Calm Calm - N/A   Clear
10:55 PM 55.6 °F 39.7 °F 55% 30.05 in 10.0 mi Calm Calm - N/A   Clear
11:15 PM 55.6 °F 39.2 °F 54% 30.04 in 10.0 mi ESE 3.5 mph - N/A   Clear
11:35 PM 54.9 °F 39.2 °F 56% 30.04 in 10.0 mi Calm Calm - N/A   Clear
11:55 PM 55.2 °F 38.1 °F 53% 30.03 in 10.0 mi Calm Calm - N/A   Scattered Clouds